{"data":{"norad_id":43077,"epoch":"2026-09-20T00:25:31.142784Z","epoch_age_seconds":57081,"freshness":"FRESH","line1":"1 43077U 17083H   26263.01772156 -.00000011  00000+0 -10975-4 0  9997","line2":"2 43077  86.3909 282.3418 0002205  92.1046 268.0402 14.34217337457763","mean_motion":14.34217337,"eccentricity":0.0002205,"inclination_deg":86.3909,"raan_deg":282.3418,"arg_perigee_deg":92.1046,"mean_anomaly_deg":268.0402,"bstar":-1.0975e-5,"rev_number":45776,"period_min":100.40319293672,"perigee_km":776.09067296729,"apogee_km":779.24638320517,"semimajor_km":7155.8055280862,"source":"CELESTRAK","updated_at":"2026-09-20T09:00:36.327793Z"}}